Погода в Малой Сазанке

Россия / Амурская область     51°13′38″N   128°04′21″E
темп.,
°C
ветер,
м/с
пор.,
м/с
влажн.,
%
обл.,
%
осадки,
мм/ч
давл.,
гПа
погр.,
м
7 мая, пт
пт700:00+6зсз1172100 0.0 100121
03:00+6зсз117579 0.0 100121
06:00+4ссз11775 0.0 100233
09:00+10ссв34585 0.0 1001861
12:00+12св4347100 0.1 9991814
15:00+12ссв4544100 0.1 9981510
18:00+12ссв4642100 0.0 9981783
21:00+9ссв51246100 0.0 997492
8 мая, сб
сб800:00+6ссв5114667 0.0 998485
03:00+4с61256100 0.0 998472
06:00+3с61261100 0.0 998587
09:00+6с6950100 0.0 998829
12:00+10ссв6840100 0.0 9981446
15:00+11с6836100 0.0 9971944
18:00+8св6964100 0.0 9991241
21:00+5с5986100 0.1 1001746
9 мая, вс
вс900:00+4ссв5892100 0.2 1001620
03:00+3с5891100 0.2 1001435
06:00+4с5969100 0.1 1001499
09:00+6с676249 0.1 1002840
12:00+11с5645100 0.0 10021391
15:00+12ссв4539100 0.0 10021863
18:00+12св3444100 0.0 10021659
21:00+7ю2378100 0.0 100484
10 мая, пн
пн1000:00+7с0171100 0.0 100559
03:00+6ссз1182100 0.3 100778
06:00+6с1292100 1.3 1008125
09:00+6с2390100 2.6 1009215
12:00+6ссв3385100 0.2 1010269
15:00+7ссв2384100 0.3 1011346
18:00+7св2386100 0.0 1012271
21:00+6св1191100 0.1 101315
11 мая, вт
вт1100:00+6всв1194100 0.0 101310
03:00+6ююв1196100 0.0 101326
06:00+5ю1294100 0.0 101485
09:00+7ююв2383100 0.0 1014362
12:00+12ююв345672 0.0 10131395
15:00+11ю4554100 0.1 10121230
18:00+13вюв464694 0.0 10121584
21:00+10юв3969100 0.0 1013388